Year,Month,Day,Hour,Minute,Value (Times are PST for temperature in C)
2015,07,12,00,00,15.40
2015,07,12,00,01,15.40
2015,07,12,00,02,15.40
2015,07,12,00,03,15.40
2015,07,12,00,04,15.40
2015,07,12,00,05,15.40
2015,07,12,00,06,15.40
2015,07,12,00,07,15.50
2015,07,12,00,08,15.50
2015,07,12,00,09,15.50
2015,07,12,00,10,15.50
2015,07,12,00,11,15.50
2015,07,12,00,12,15.50
2015,07,12,00,13,15.50
2015,07,12,00,14,15.50
2015,07,12,00,15,15.60
2015,07,12,00,16,15.60
2015,07,12,00,17,15.60
2015,07,12,00,18,15.60
2015,07,12,00,19,15.60
2015,07,12,00,20,15.60
2015,07,12,00,21,15.50
2015,07,12,00,22,15.50
2015,07,12,00,23,15.50
2015,07,12,00,24,15.40
2015,07,12,00,25,15.40
2015,07,12,00,26,15.40
2015,07,12,00,27,15.40
2015,07,12,00,28,15.40
2015,07,12,00,29,15.40
2015,07,12,00,30,15.40
2015,07,12,00,31,15.40
2015,07,12,00,32,15.30
2015,07,12,00,33,15.30
2015,07,12,00,34,15.30
2015,07,12,00,35,15.30
2015,07,12,00,36,15.30
2015,07,12,00,37,15.30
2015,07,12,00,38,15.30
2015,07,12,00,39,15.30
2015,07,12,00,40,15.30
2015,07,12,00,41,15.30
2015,07,12,00,42,15.30
2015,07,12,00,43,15.20
2015,07,12,00,44,15.20
2015,07,12,00,45,15.20
2015,07,12,00,46,15.20
2015,07,12,00,47,15.20
2015,07,12,00,48,15.20
2015,07,12,00,49,15.20
2015,07,12,00,50,15.20
2015,07,12,00,51,15.20
2015,07,12,00,52,15.20
2015,07,12,00,53,15.20
2015,07,12,00,54,15.20
2015,07,12,00,55,15.20
2015,07,12,00,56,15.20
2015,07,12,00,57,15.20
2015,07,12,00,58,15.20
2015,07,12,00,59,15.20
2015,07,12,01,00,15.10
2015,07,12,01,01,15.10
2015,07,12,01,02,15.10
2015,07,12,01,03,15.10
2015,07,12,01,04,15.10
2015,07,12,01,05,15.10
2015,07,12,01,06,15.10
2015,07,12,01,07,15.10
2015,07,12,01,08,15.00
2015,07,12,01,09,15.00
2015,07,12,01,10,15.00
2015,07,12,01,11,15.00
2015,07,12,01,12,15.00
2015,07,12,01,13,15.00
2015,07,12,01,14,14.90
2015,07,12,01,15,15.00
2015,07,12,01,16,14.90
2015,07,12,01,17,14.90
2015,07,12,01,18,14.90
2015,07,12,01,19,14.90
2015,07,12,01,20,14.90
2015,07,12,01,21,14.90
2015,07,12,01,22,14.90
2015,07,12,01,23,14.90
2015,07,12,01,24,14.90
2015,07,12,01,25,14.90
2015,07,12,01,26,14.90
2015,07,12,01,27,14.90
2015,07,12,01,28,14.90
2015,07,12,01,29,14.90
2015,07,12,01,30,14.90
2015,07,12,01,31,14.90
2015,07,12,01,32,15.00
2015,07,12,01,33,15.00
2015,07,12,01,34,15.00
2015,07,12,01,35,15.00
2015,07,12,01,36,15.00
2015,07,12,01,37,15.00
2015,07,12,01,38,15.10
2015,07,12,01,39,15.10
2015,07,12,01,40,15.10
2015,07,12,01,41,15.10
2015,07,12,01,42,15.10
2015,07,12,01,43,15.10
2015,07,12,01,44,15.20
2015,07,12,01,45,15.20
2015,07,12,01,46,15.20
2015,07,12,01,47,15.20
2015,07,12,01,48,15.20
2015,07,12,01,49,15.20
2015,07,12,01,50,15.20
2015,07,12,01,51,15.20
2015,07,12,01,52,15.30
2015,07,12,01,53,15.30
2015,07,12,01,54,15.30
2015,07,12,01,55,15.30
2015,07,12,01,56,15.30
2015,07,12,01,57,15.30
2015,07,12,01,58,15.30
2015,07,12,01,59,15.30
2015,07,12,02,00,15.30
2015,07,12,02,01,15.30
2015,07,12,02,02,15.30
2015,07,12,02,03,15.30
2015,07,12,02,04,15.30
2015,07,12,02,05,15.40
2015,07,12,02,06,15.40
2015,07,12,02,07,15.40
2015,07,12,02,08,15.40
2015,07,12,02,09,15.30
2015,07,12,02,10,15.30
2015,07,12,02,11,15.20
2015,07,12,02,12,15.20
2015,07,12,02,13,15.10
2015,07,12,02,14,15.00
2015,07,12,02,15,14.90
2015,07,12,02,16,14.80
2015,07,12,02,17,14.80
2015,07,12,02,18,14.70
2015,07,12,02,19,14.70
2015,07,12,02,20,14.60
2015,07,12,02,21,14.60
2015,07,12,02,22,14.50
2015,07,12,02,23,14.50
2015,07,12,02,24,14.40
2015,07,12,02,25,14.40
2015,07,12,02,26,14.40
2015,07,12,02,27,14.40
2015,07,12,02,28,14.30
2015,07,12,02,29,14.30
2015,07,12,02,30,14.30
2015,07,12,02,31,14.30
2015,07,12,02,32,14.30
2015,07,12,02,33,14.20
2015,07,12,02,34,14.20
2015,07,12,02,35,14.20
2015,07,12,02,36,14.20
2015,07,12,02,37,14.10
2015,07,12,02,38,14.10
2015,07,12,02,39,14.10
2015,07,12,02,40,14.10
2015,07,12,02,41,14.10
2015,07,12,02,42,14.10
2015,07,12,02,43,14.10
2015,07,12,02,44,14.10
2015,07,12,02,45,14.10
2015,07,12,02,46,14.10
2015,07,12,02,47,14.10
2015,07,12,02,48,14.10
2015,07,12,02,49,14.10
2015,07,12,02,50,14.10
2015,07,12,02,51,14.00
2015,07,12,02,52,14.00
2015,07,12,02,53,14.00
2015,07,12,02,54,14.00
2015,07,12,02,55,14.00
2015,07,12,02,56,14.00
2015,07,12,02,57,14.00
2015,07,12,02,58,14.00
2015,07,12,02,59,14.00
2015,07,12,03,00,14.00
2015,07,12,03,01,13.90
2015,07,12,03,02,13.90
2015,07,12,03,03,13.90
2015,07,12,03,04,13.90
2015,07,12,03,05,13.90
2015,07,12,03,06,13.90
2015,07,12,03,07,13.90
2015,07,12,03,08,13.90
2015,07,12,03,09,13.90
2015,07,12,03,10,13.90
2015,07,12,03,11,13.90
2015,07,12,03,12,13.90
2015,07,12,03,13,13.90
2015,07,12,03,14,13.80
2015,07,12,03,15,13.80
2015,07,12,03,16,13.80
2015,07,12,03,17,13.80
2015,07,12,03,18,13.80
2015,07,12,03,19,13.80
2015,07,12,03,20,13.80
2015,07,12,03,21,13.80
2015,07,12,03,22,13.80
2015,07,12,03,23,13.80
2015,07,12,03,24,13.80
2015,07,12,03,25,13.80
2015,07,12,03,26,13.80
2015,07,12,03,27,13.80
2015,07,12,03,28,13.80
2015,07,12,03,29,13.80
2015,07,12,03,30,13.80
2015,07,12,03,31,13.80
2015,07,12,03,32,13.80
2015,07,12,03,33,13.80
2015,07,12,03,34,13.80
2015,07,12,03,35,13.90
2015,07,12,03,36,13.90
2015,07,12,03,37,13.90
2015,07,12,03,38,13.90
2015,07,12,03,39,13.90
2015,07,12,03,40,13.90
2015,07,12,03,41,13.90
2015,07,12,03,42,13.90
2015,07,12,03,43,13.90
2015,07,12,03,44,14.00
2015,07,12,03,45,14.00
2015,07,12,03,46,14.00
2015,07,12,03,47,14.00
2015,07,12,03,48,14.10
2015,07,12,03,49,14.10
2015,07,12,03,50,14.10
2015,07,12,03,51,14.20
2015,07,12,03,52,14.20
2015,07,12,03,53,14.30
2015,07,12,03,54,14.30
2015,07,12,03,55,14.20
2015,07,12,03,56,14.20
2015,07,12,03,57,14.20
2015,07,12,03,58,14.10
2015,07,12,03,59,14.10
2015,07,12,04,00,14.00
2015,07,12,04,01,14.00
2015,07,12,04,02,13.90
2015,07,12,04,03,13.90
2015,07,12,04,04,13.80
2015,07,12,04,05,13.80
2015,07,12,04,06,13.80
2015,07,12,04,07,13.70
2015,07,12,04,08,13.70
2015,07,12,04,09,13.70
2015,07,12,04,10,13.70
2015,07,12,04,11,13.70
2015,07,12,04,12,13.70
2015,07,12,04,13,13.70
2015,07,12,04,14,13.70
2015,07,12,04,15,13.70
2015,07,12,04,16,13.70
2015,07,12,04,17,13.70
2015,07,12,04,18,13.70
2015,07,12,04,19,13.70
2015,07,12,04,20,13.70
2015,07,12,04,21,13.70
2015,07,12,04,22,13.70
2015,07,12,04,23,13.70
2015,07,12,04,24,13.70
2015,07,12,04,25,13.70
2015,07,12,04,26,13.70
2015,07,12,04,27,13.70
2015,07,12,04,28,13.70
2015,07,12,04,29,13.70
2015,07,12,04,30,13.70
2015,07,12,04,31,13.70
2015,07,12,04,32,13.70
2015,07,12,04,33,13.70
2015,07,12,04,34,13.70
2015,07,12,04,35,13.70
2015,07,12,04,36,13.80
2015,07,12,04,37,13.80
2015,07,12,04,38,13.80
2015,07,12,04,39,13.80
2015,07,12,04,40,13.80
2015,07,12,04,41,13.80
2015,07,12,04,42,13.80
2015,07,12,04,43,13.80
2015,07,12,04,44,13.80
2015,07,12,04,45,13.80
2015,07,12,04,46,13.80
2015,07,12,04,47,13.80
2015,07,12,04,48,13.80
2015,07,12,04,49,13.80
2015,07,12,04,50,13.80
2015,07,12,04,51,13.80
2015,07,12,04,52,13.80
2015,07,12,04,53,13.80
2015,07,12,04,54,13.80
2015,07,12,04,55,13.80
2015,07,12,04,56,13.80
2015,07,12,04,57,13.80
2015,07,12,04,58,13.80
2015,07,12,04,59,13.70
2015,07,12,05,00,13.70
2015,07,12,05,01,13.70
2015,07,12,05,02,13.70
2015,07,12,05,03,13.70
2015,07,12,05,04,13.70
2015,07,12,05,05,13.70
2015,07,12,05,06,13.70
2015,07,12,05,07,13.70
2015,07,12,05,08,13.70
2015,07,12,05,09,13.70
2015,07,12,05,10,13.70
2015,07,12,05,11,13.70
2015,07,12,05,12,13.70
2015,07,12,05,13,13.70
2015,07,12,05,14,13.70
2015,07,12,05,15,13.70
2015,07,12,05,16,13.70
2015,07,12,05,17,13.70
2015,07,12,05,18,13.70
2015,07,12,05,19,13.70
2015,07,12,05,20,13.70
2015,07,12,05,21,13.70
2015,07,12,05,22,13.70
2015,07,12,05,23,13.70
2015,07,12,05,24,13.70
2015,07,12,05,25,13.70
2015,07,12,05,26,13.70
2015,07,12,05,27,13.70
2015,07,12,05,28,13.70
2015,07,12,05,29,13.70
2015,07,12,05,30,13.80
2015,07,12,05,31,13.80
2015,07,12,05,32,13.80
2015,07,12,05,33,13.80
2015,07,12,05,34,13.80
2015,07,12,05,35,13.80
2015,07,12,05,36,13.80
2015,07,12,05,37,13.80
2015,07,12,05,38,13.80
2015,07,12,05,39,13.80
2015,07,12,05,40,13.80
2015,07,12,05,41,13.80
2015,07,12,05,42,13.80
2015,07,12,05,43,13.80
2015,07,12,05,44,13.80
2015,07,12,05,45,13.80
2015,07,12,05,46,13.80
2015,07,12,05,47,13.80
2015,07,12,05,48,13.80
2015,07,12,05,49,13.80
2015,07,12,05,50,13.80
2015,07,12,05,51,13.80
2015,07,12,05,52,13.80
2015,07,12,05,53,13.80
2015,07,12,05,54,13.80
2015,07,12,05,55,13.80
2015,07,12,05,56,13.80
2015,07,12,05,57,13.80
2015,07,12,05,58,13.80
2015,07,12,05,59,13.80
2015,07,12,06,00,13.80
2015,07,12,06,01,13.90
2015,07,12,06,02,13.90
2015,07,12,06,03,13.90
2015,07,12,06,04,13.90
2015,07,12,06,05,13.90
2015,07,12,06,06,13.90
2015,07,12,06,07,13.90
2015,07,12,06,08,13.90
2015,07,12,06,09,13.90
2015,07,12,06,10,13.90
2015,07,12,06,11,13.90
2015,07,12,06,12,13.90
2015,07,12,06,13,13.90
2015,07,12,06,14,13.90
2015,07,12,06,15,14.00
2015,07,12,06,16,14.00
2015,07,12,06,17,14.00
2015,07,12,06,18,14.00
2015,07,12,06,19,14.00
2015,07,12,06,20,14.00
2015,07,12,06,21,14.00
2015,07,12,06,22,14.00
2015,07,12,06,23,14.00
2015,07,12,06,24,14.00
2015,07,12,06,25,14.10
2015,07,12,06,26,14.10
2015,07,12,06,27,14.10
2015,07,12,06,28,14.10
2015,07,12,06,29,14.10
2015,07,12,06,30,14.10
2015,07,12,06,31,14.10
2015,07,12,06,32,14.10
2015,07,12,06,33,14.10
2015,07,12,06,34,14.10
2015,07,12,06,35,14.10
2015,07,12,06,36,14.10
2015,07,12,06,37,14.10
2015,07,12,06,38,14.10
2015,07,12,06,39,14.10
2015,07,12,06,40,14.20
2015,07,12,06,41,14.20
2015,07,12,06,42,14.20
2015,07,12,06,43,14.20
2015,07,12,06,44,14.20
2015,07,12,06,45,14.20
2015,07,12,06,46,14.20
2015,07,12,06,47,14.20
2015,07,12,06,48,14.30
2015,07,12,06,49,14.30
2015,07,12,06,50,14.30
2015,07,12,06,51,14.30
2015,07,12,06,52,14.30
2015,07,12,06,53,14.30
2015,07,12,06,54,14.30
2015,07,12,06,55,14.30
2015,07,12,06,56,14.40
2015,07,12,06,57,14.40
2015,07,12,06,58,14.40
2015,07,12,06,59,14.40
2015,07,12,07,00,14.40
2015,07,12,07,01,14.40
2015,07,12,07,02,14.40
2015,07,12,07,03,14.40
2015,07,12,07,04,14.40
2015,07,12,07,05,14.50
2015,07,12,07,06,14.50
2015,07,12,07,07,14.50
2015,07,12,07,08,14.50
2015,07,12,07,09,14.50
2015,07,12,07,10,14.50
2015,07,12,07,11,14.50
2015,07,12,07,12,14.60
2015,07,12,07,13,14.60
2015,07,12,07,14,14.60
2015,07,12,07,15,14.60
2015,07,12,07,16,14.60
2015,07,12,07,17,14.60
2015,07,12,07,18,14.60
2015,07,12,07,19,14.60
2015,07,12,07,20,14.60
2015,07,12,07,21,14.60
2015,07,12,07,22,14.70
2015,07,12,07,23,14.70
2015,07,12,07,24,14.70
2015,07,12,07,25,14.70
2015,07,12,07,26,14.70
2015,07,12,07,27,14.70
2015,07,12,07,28,14.70
2015,07,12,07,29,14.70
2015,07,12,07,30,14.70
2015,07,12,07,31,14.70
2015,07,12,07,32,14.70
2015,07,12,07,33,14.70
2015,07,12,07,34,14.70
2015,07,12,07,35,14.70
2015,07,12,07,36,14.70
2015,07,12,07,37,14.70
2015,07,12,07,38,14.70
2015,07,12,07,39,14.80
2015,07,12,07,40,14.80
2015,07,12,07,41,14.80
2015,07,12,07,42,14.80
2015,07,12,07,43,14.80
2015,07,12,07,44,14.80
2015,07,12,07,45,14.90
2015,07,12,07,46,14.90
2015,07,12,07,47,14.90
2015,07,12,07,48,14.90
2015,07,12,07,49,14.90
2015,07,12,07,50,14.90
2015,07,12,07,51,14.90
2015,07,12,07,52,14.90
2015,07,12,07,53,14.90
2015,07,12,07,54,14.90
2015,07,12,07,55,14.90
2015,07,12,07,56,14.90
2015,07,12,07,57,14.90
2015,07,12,07,58,14.90
2015,07,12,07,59,14.90
2015,07,12,08,00,14.90
2015,07,12,08,01,14.90
2015,07,12,08,02,14.90
2015,07,12,08,03,14.90
2015,07,12,08,04,14.90
2015,07,12,08,05,14.90
2015,07,12,08,06,14.90
2015,07,12,08,07,14.90
2015,07,12,08,08,14.90
2015,07,12,08,09,14.90
2015,07,12,08,10,14.90
2015,07,12,08,11,14.90
2015,07,12,08,12,15.00
2015,07,12,08,13,15.00
2015,07,12,08,14,15.00
2015,07,12,08,15,15.00
2015,07,12,08,16,15.00
2015,07,12,08,17,15.00
2015,07,12,08,18,15.00
2015,07,12,08,19,15.00
2015,07,12,08,20,15.00
2015,07,12,08,21,15.00
2015,07,12,08,22,15.00
2015,07,12,08,23,15.00
2015,07,12,08,24,15.10
2015,07,12,08,25,15.10
2015,07,12,08,26,15.10
2015,07,12,08,27,15.10
2015,07,12,08,28,15.10
2015,07,12,08,29,15.10
2015,07,12,08,30,15.10
2015,07,12,08,31,15.20
2015,07,12,08,32,15.20
2015,07,12,08,33,15.20
2015,07,12,08,34,15.20
2015,07,12,08,35,15.20
2015,07,12,08,36,15.30
2015,07,12,08,37,15.30
2015,07,12,08,38,15.30
2015,07,12,08,39,15.30
2015,07,12,08,40,15.30
2015,07,12,08,41,15.30
2015,07,12,08,42,15.30
2015,07,12,08,43,15.30
2015,07,12,08,44,15.30
2015,07,12,08,45,15.40
2015,07,12,08,46,15.40
2015,07,12,08,47,15.40
2015,07,12,08,48,15.40
2015,07,12,08,49,15.40
2015,07,12,08,50,15.40
2015,07,12,08,51,15.50
2015,07,12,08,52,15.50
2015,07,12,08,53,15.50
2015,07,12,08,54,15.50
2015,07,12,08,55,15.50
2015,07,12,08,56,15.50
2015,07,12,08,57,15.50
2015,07,12,08,58,15.50
2015,07,12,08,59,15.50
2015,07,12,09,00,15.60
2015,07,12,09,01,15.60
2015,07,12,09,02,15.60
2015,07,12,09,03,15.60
2015,07,12,09,04,15.60
2015,07,12,09,05,15.70
2015,07,12,09,06,15.70
2015,07,12,09,07,15.70
2015,07,12,09,08,15.70
2015,07,12,09,09,15.70
2015,07,12,09,10,15.80
2015,07,12,09,11,15.80
2015,07,12,09,12,15.80
2015,07,12,09,13,15.80
2015,07,12,09,14,15.80
2015,07,12,09,15,15.90
2015,07,12,09,16,15.90
2015,07,12,09,17,15.90
2015,07,12,09,18,16.00
2015,07,12,09,19,16.00
2015,07,12,09,20,16.00
2015,07,12,09,21,16.00
2015,07,12,09,22,16.00
2015,07,12,09,23,16.00
2015,07,12,09,24,16.10
2015,07,12,09,25,16.10
2015,07,12,09,26,16.00
2015,07,12,09,27,16.00
2015,07,12,09,28,15.90
2015,07,12,09,29,15.90
2015,07,12,09,30,15.80
2015,07,12,09,31,15.80
2015,07,12,09,32,15.70
2015,07,12,09,33,15.70
2015,07,12,09,34,15.70
2015,07,12,09,35,15.70
2015,07,12,09,36,15.70
2015,07,12,09,37,15.80
2015,07,12,09,38,15.80
2015,07,12,09,39,15.80
2015,07,12,09,40,15.90
2015,07,12,09,41,15.80
2015,07,12,09,42,15.80
2015,07,12,09,43,15.80
2015,07,12,09,44,15.70
2015,07,12,09,45,15.70
2015,07,12,09,46,15.70
2015,07,12,09,47,15.70
2015,07,12,09,48,15.60
2015,07,12,09,49,15.60
2015,07,12,09,50,15.60
2015,07,12,09,51,15.60
2015,07,12,09,52,15.60
2015,07,12,09,53,15.50
2015,07,12,09,54,15.50
2015,07,12,09,55,15.50
2015,07,12,09,56,15.50
2015,07,12,09,57,15.50
2015,07,12,09,58,15.50
2015,07,12,09,59,15.60
2015,07,12,10,00,15.60
2015,07,12,10,01,15.60
2015,07,12,10,02,15.60
2015,07,12,10,03,15.60
2015,07,12,10,04,15.70
2015,07,12,10,05,15.70
2015,07,12,10,06,15.70
2015,07,12,10,07,15.80
2015,07,12,10,08,15.80
2015,07,12,10,09,15.80
2015,07,12,10,10,15.80
2015,07,12,10,11,15.80
2015,07,12,10,12,15.90
2015,07,12,10,13,15.90
2015,07,12,10,14,15.90
2015,07,12,10,15,16.00
2015,07,12,10,16,16.00
2015,07,12,10,17,16.00
2015,07,12,10,18,16.00
2015,07,12,10,19,16.10
2015,07,12,10,20,16.10
2015,07,12,10,21,16.10
2015,07,12,10,22,16.10
2015,07,12,10,23,16.10
2015,07,12,10,24,16.10
2015,07,12,10,25,16.10
2015,07,12,10,26,16.10
2015,07,12,10,27,16.10
2015,07,12,10,28,16.20
2015,07,12,10,29,16.20
2015,07,12,10,30,16.20
2015,07,12,10,31,16.20
2015,07,12,10,32,16.20
2015,07,12,10,33,16.20
2015,07,12,10,34,16.20
2015,07,12,10,35,16.20
2015,07,12,10,36,16.10
2015,07,12,10,37,16.10
2015,07,12,10,38,16.10
2015,07,12,10,39,16.00
2015,07,12,10,40,15.90
2015,07,12,10,41,15.80
2015,07,12,10,42,15.80
2015,07,12,10,43,15.70
2015,07,12,10,44,15.60
2015,07,12,10,45,15.50
2015,07,12,10,46,15.40
2015,07,12,10,47,15.30
2015,07,12,10,48,15.30
2015,07,12,10,49,15.20
2015,07,12,10,50,15.20
2015,07,12,10,51,15.20
2015,07,12,10,52,15.20
2015,07,12,10,53,15.20
2015,07,12,10,54,15.20
2015,07,12,10,55,15.20
2015,07,12,10,56,15.20
2015,07,12,10,57,15.20
2015,07,12,10,58,15.20
2015,07,12,10,59,15.20
2015,07,12,11,00,15.20
2015,07,12,11,01,15.20
2015,07,12,11,02,15.20
2015,07,12,11,03,15.20
2015,07,12,11,04,15.20
2015,07,12,11,05,15.20
2015,07,12,11,06,15.30
2015,07,12,11,07,15.30
2015,07,12,11,08,15.30
2015,07,12,11,09,15.30
2015,07,12,11,10,15.40
2015,07,12,11,11,15.50
2015,07,12,11,12,15.50
2015,07,12,11,13,15.50
2015,07,12,11,14,15.60
2015,07,12,11,15,15.70
2015,07,12,11,16,15.80
2015,07,12,11,17,15.80
2015,07,12,11,18,15.80
2015,07,12,11,19,15.90
2015,07,12,11,20,15.80
2015,07,12,11,21,15.80
2015,07,12,11,22,15.80
2015,07,12,11,23,15.90
2015,07,12,11,24,15.90
2015,07,12,11,25,16.00
2015,07,12,11,26,16.10
2015,07,12,11,27,16.20
2015,07,12,11,28,16.20
2015,07,12,11,29,16.40
2015,07,12,11,30,16.50
2015,07,12,11,31,16.60
2015,07,12,11,32,16.70
2015,07,12,11,33,16.80
2015,07,12,11,34,16.80
2015,07,12,11,35,16.90
2015,07,12,11,36,17.00
2015,07,12,11,37,17.10
2015,07,12,11,38,17.10
2015,07,12,11,39,17.10
2015,07,12,11,40,17.10
2015,07,12,11,41,17.10
2015,07,12,11,42,17.10
2015,07,12,11,43,17.10
2015,07,12,11,44,17.10
2015,07,12,11,45,17.10
2015,07,12,11,46,17.20
2015,07,12,11,47,17.20
2015,07,12,11,48,17.10
2015,07,12,11,49,17.10
2015,07,12,11,50,17.10
2015,07,12,11,51,17.20
2015,07,12,11,52,17.20
2015,07,12,11,53,17.20
2015,07,12,11,54,17.30
2015,07,12,11,55,17.40
2015,07,12,11,56,17.50
2015,07,12,11,57,17.50
2015,07,12,11,58,17.50
2015,07,12,11,59,17.50
2015,07,12,12,00,17.40
2015,07,12,12,01,17.40
2015,07,12,12,02,17.40
2015,07,12,12,03,17.50
2015,07,12,12,04,17.60
2015,07,12,12,05,17.60
2015,07,12,12,06,17.60
2015,07,12,12,07,17.60
2015,07,12,12,08,17.60
2015,07,12,12,09,17.60
2015,07,12,12,10,17.70
2015,07,12,12,11,17.70
2015,07,12,12,12,17.80
2015,07,12,12,13,17.80
2015,07,12,12,14,17.80
2015,07,12,12,15,17.80
2015,07,12,12,16,17.80
2015,07,12,12,17,17.80
2015,07,12,12,18,17.90
2015,07,12,12,19,17.90
2015,07,12,12,20,18.00
2015,07,12,12,21,18.00
2015,07,12,12,22,18.10
2015,07,12,12,23,18.10
2015,07,12,12,24,18.10
2015,07,12,12,25,18.10
2015,07,12,12,26,18.10
2015,07,12,12,27,18.20
2015,07,12,12,28,18.20
2015,07,12,12,29,18.20
2015,07,12,12,30,18.30
2015,07,12,12,31,18.30
2015,07,12,12,32,18.30
2015,07,12,12,33,18.30
2015,07,12,12,34,18.40
2015,07,12,12,35,18.40
2015,07,12,12,36,18.40
2015,07,12,12,37,18.50
2015,07,12,12,38,18.50
2015,07,12,12,39,18.60
2015,07,12,12,40,18.60
2015,07,12,12,41,18.60
2015,07,12,12,42,18.60
2015,07,12,12,43,18.60
2015,07,12,12,44,18.70
2015,07,12,12,45,18.70
2015,07,12,12,46,18.70
2015,07,12,12,47,18.70
2015,07,12,12,48,18.60
2015,07,12,12,49,18.60
2015,07,12,12,50,18.50
2015,07,12,12,51,18.50
2015,07,12,12,52,18.40
2015,07,12,12,53,18.40
2015,07,12,12,54,18.40
2015,07,12,12,55,18.50
2015,07,12,12,56,18.50
2015,07,12,12,57,18.60
2015,07,12,12,58,18.60
2015,07,12,12,59,18.70
2015,07,12,13,00,18.70
2015,07,12,13,01,18.80
2015,07,12,13,02,18.80
2015,07,12,13,03,18.80
2015,07,12,13,04,18.80
2015,07,12,13,05,18.80
2015,07,12,13,06,18.80
2015,07,12,13,07,18.90
2015,07,12,13,08,18.90
2015,07,12,13,09,18.90
2015,07,12,13,10,18.90
2015,07,12,13,11,19.00
2015,07,12,13,12,18.90
2015,07,12,13,13,18.90
2015,07,12,13,14,18.90
2015,07,12,13,15,18.90
2015,07,12,13,16,18.90
2015,07,12,13,17,18.90
2015,07,12,13,18,18.90
2015,07,12,13,19,19.00
2015,07,12,13,20,19.10
2015,07,12,13,21,19.10
2015,07,12,13,22,19.20
2015,07,12,13,23,19.30
2015,07,12,13,24,19.40
2015,07,12,13,25,19.50
2015,07,12,13,26,19.50
2015,07,12,13,27,19.60
2015,07,12,13,28,19.60
2015,07,12,13,29,19.50
2015,07,12,13,30,19.40
2015,07,12,13,31,19.40
2015,07,12,13,32,19.30
2015,07,12,13,33,19.30
2015,07,12,13,34,19.30
2015,07,12,13,35,19.30
2015,07,12,13,36,19.30
2015,07,12,13,37,19.30
2015,07,12,13,38,19.30
2015,07,12,13,39,19.40
2015,07,12,13,40,19.40
2015,07,12,13,41,19.50
2015,07,12,13,42,19.50
2015,07,12,13,43,19.50
2015,07,12,13,44,19.50
2015,07,12,13,45,19.50
2015,07,12,13,46,19.50
2015,07,12,13,47,19.60
2015,07,12,13,48,19.60
2015,07,12,13,49,19.70
2015,07,12,13,50,19.80
2015,07,12,13,51,19.80
2015,07,12,13,52,19.90
2015,07,12,13,53,20.00
2015,07,12,13,54,20.10
2015,07,12,13,55,20.10
2015,07,12,13,56,20.20
2015,07,12,13,57,20.30
2015,07,12,13,58,20.50
2015,07,12,13,59,20.50
2015,07,12,14,00,20.50
2015,07,12,14,01,20.40
2015,07,12,14,02,20.40
2015,07,12,14,03,20.40
2015,07,12,14,04,20.40
2015,07,12,14,05,20.30
2015,07,12,14,06,20.40
2015,07,12,14,07,20.40
2015,07,12,14,08,20.30
2015,07,12,14,09,20.30
2015,07,12,14,10,20.30
2015,07,12,14,11,20.30
2015,07,12,14,12,20.20
2015,07,12,14,13,20.20
2015,07,12,14,14,20.20
2015,07,12,14,15,20.10
2015,07,12,14,16,20.10
2015,07,12,14,17,20.10
2015,07,12,14,18,20.00
2015,07,12,14,19,20.00
2015,07,12,14,20,20.10
2015,07,12,14,21,20.10
2015,07,12,14,22,20.10
2015,07,12,14,23,20.10
2015,07,12,14,24,20.10
2015,07,12,14,25,20.10
2015,07,12,14,26,20.10
2015,07,12,14,27,20.10
2015,07,12,14,28,20.10
2015,07,12,14,29,20.00
2015,07,12,14,30,19.90
2015,07,12,14,31,19.80
2015,07,12,14,32,19.80
2015,07,12,14,33,19.70
2015,07,12,14,34,19.70
2015,07,12,14,35,19.60
2015,07,12,14,36,19.50
2015,07,12,14,37,19.40
2015,07,12,14,38,19.40
2015,07,12,14,39,19.30
2015,07,12,14,40,19.30
2015,07,12,14,41,19.30
2015,07,12,14,42,19.30
2015,07,12,14,43,19.30
2015,07,12,14,44,19.40
2015,07,12,14,45,19.40
2015,07,12,14,46,19.40
2015,07,12,14,47,19.30
2015,07,12,14,48,19.30
2015,07,12,14,49,19.30
2015,07,12,14,50,19.40
2015,07,12,14,51,19.50
2015,07,12,14,52,19.60
2015,07,12,14,53,19.60
2015,07,12,14,54,19.60
2015,07,12,14,55,19.60
2015,07,12,14,56,19.60
2015,07,12,14,57,19.70
2015,07,12,14,58,19.70
2015,07,12,14,59,19.80
2015,07,12,15,00,19.80
2015,07,12,15,01,19.90
2015,07,12,15,02,20.00
2015,07,12,15,03,20.10
2015,07,12,15,04,20.20
2015,07,12,15,05,20.30
2015,07,12,15,06,20.30
2015,07,12,15,07,20.30
2015,07,12,15,08,20.40
2015,07,12,15,09,20.40
2015,07,12,15,10,20.50
2015,07,12,15,11,20.60
2015,07,12,15,12,20.70
2015,07,12,15,13,20.80
2015,07,12,15,14,20.90
2015,07,12,15,15,21.00
2015,07,12,15,16,21.00
2015,07,12,15,17,21.00
2015,07,12,15,18,20.90
2015,07,12,15,19,21.00
2015,07,12,15,20,21.00
2015,07,12,15,21,21.10
2015,07,12,15,22,21.10
2015,07,12,15,23,21.10
2015,07,12,15,24,21.20
2015,07,12,15,25,21.20
2015,07,12,15,26,21.20
2015,07,12,15,27,21.20
2015,07,12,15,28,21.30
2015,07,12,15,29,21.30
2015,07,12,15,30,21.30
2015,07,12,15,31,21.30
2015,07,12,15,32,21.30
2015,07,12,15,33,21.40
2015,07,12,15,34,21.40
2015,07,12,15,35,21.50
2015,07,12,15,36,21.50
2015,07,12,15,37,21.50
2015,07,12,15,38,21.50
2015,07,12,15,39,21.40
2015,07,12,15,40,21.40
2015,07,12,15,41,21.30
2015,07,12,15,42,21.30
2015,07,12,15,43,21.20
2015,07,12,15,44,21.30
2015,07,12,15,45,21.30
2015,07,12,15,46,21.30
2015,07,12,15,47,21.30
2015,07,12,15,48,21.30
2015,07,12,15,49,21.30
2015,07,12,15,50,21.30
2015,07,12,15,51,21.30
2015,07,12,15,52,21.20
2015,07,12,15,53,21.20
2015,07,12,15,54,21.20
2015,07,12,15,55,21.10
2015,07,12,15,56,21.00
2015,07,12,15,57,21.00
2015,07,12,15,58,21.10
2015,07,12,15,59,21.20
2015,07,12,16,00,21.20
2015,07,12,16,01,21.20
2015,07,12,16,02,21.20
2015,07,12,16,03,21.10
2015,07,12,16,04,21.00
2015,07,12,16,05,21.00
2015,07,12,16,06,20.80
2015,07,12,16,07,20.70
2015,07,12,16,08,20.60
2015,07,12,16,09,20.50
2015,07,12,16,10,20.50
2015,07,12,16,11,20.60
2015,07,12,16,12,20.60
2015,07,12,16,13,20.60
2015,07,12,16,14,20.70
2015,07,12,16,15,20.70
2015,07,12,16,16,20.60
2015,07,12,16,17,20.50
2015,07,12,16,18,20.50
2015,07,12,16,19,20.60
2015,07,12,16,20,20.50
2015,07,12,16,21,20.50
2015,07,12,16,22,20.60
2015,07,12,16,23,20.70
2015,07,12,16,24,20.70
2015,07,12,16,25,20.60
2015,07,12,16,26,20.60
2015,07,12,16,27,20.60
2015,07,12,16,28,20.60
2015,07,12,16,29,20.60
2015,07,12,16,30,20.60
2015,07,12,16,31,20.50
2015,07,12,16,32,20.50
2015,07,12,16,33,20.40
2015,07,12,16,34,20.40
2015,07,12,16,35,20.30
2015,07,12,16,36,20.30
2015,07,12,16,37,20.20
2015,07,12,16,38,20.20
2015,07,12,16,39,20.20
2015,07,12,16,40,20.20
2015,07,12,16,41,20.20
2015,07,12,16,42,20.30
2015,07,12,16,43,20.40
2015,07,12,16,44,20.50
2015,07,12,16,45,20.50
2015,07,12,16,46,20.50
2015,07,12,16,47,20.60
2015,07,12,16,48,20.60
2015,07,12,16,49,20.60
2015,07,12,16,50,20.60
2015,07,12,16,51,20.60
2015,07,12,16,52,20.60
2015,07,12,16,53,20.60
2015,07,12,16,54,20.60
2015,07,12,16,55,20.50
2015,07,12,16,56,20.40
2015,07,12,16,57,20.30
2015,07,12,16,58,20.20
2015,07,12,16,59,20.20
2015,07,12,17,00,20.20
2015,07,12,17,01,20.30
2015,07,12,17,02,20.30
2015,07,12,17,03,20.20
2015,07,12,17,04,20.20
2015,07,12,17,05,20.20
2015,07,12,17,06,20.10
2015,07,12,17,07,20.10
2015,07,12,17,08,20.10
2015,07,12,17,09,20.10
2015,07,12,17,10,20.10
2015,07,12,17,11,20.10
2015,07,12,17,12,20.20
2015,07,12,17,13,20.20
2015,07,12,17,14,20.20
2015,07,12,17,15,20.10
2015,07,12,17,16,20.10
2015,07,12,17,17,20.10
2015,07,12,17,18,20.10
2015,07,12,17,19,20.10